GFSCGP_prec_pwat_336.txt.gz
Precipitable_Water
1.23 1.07 0.95 0.99 1.08 1.07 1.02 0.98 0.96 1.08 1.17 1.09 1.03 1.04 1.12 1.25 1.28 1.28 1.34 1.33 1.30 1.29 1.35 1.38 1.44 1.50 1.53 1.48 1.33 1.29 1.00 0.97 0.98 0.97 1.04 1.16 1.16 1.31 1.39 1.47 1.62 1.73 1.78 1.77
1.09 0.97 1.10 1.14 1.11 1.08 1.01 0.94 0.92 1.01 1.10 1.06 1.01 0.96 1.11 1.19 1.21 1.26 1.31 1.34 1.39 1.39 1.43 1.44 1.55 1.54 1.55 1.57 1.52 1.48 1.30 1.17 1.08 1.04 1.09 1.12 1.17 1.24 1.37 1.52 1.64 1.77 1.84 1.85
1.01 1.02 1.16 1.10 1.02 1.01 0.93 0.88 0.89 0.89 0.98 1.06 0.98 0.91 0.90 1.03 1.10 1.21 1.30 1.36 1.44 1.45 1.46 1.51 1.52 1.61 1.65 1.58 1.64 1.62 1.61 1.45 1.36 1.25 1.20 1.21 1.28 1.31 1.33 1.40 1.49 1.60 1.74 1.74
0.97 1.11 1.03 0.95 0.85 0.90 0.79 0.92 0.87 0.81 0.78 0.71 0.91 0.66 0.84 0.82 0.92 1.04 1.11 1.19 1.28 1.39 1.45 1.51 1.56 1.58 1.64 1.58 1.69 1.76 1.79 1.70 1.58 1.49 1.34 1.25 1.17 1.12 1.21 1.37 1.64 1.75 1.77 1.84
0.94 0.91 0.88 0.83 0.81 0.82 0.70 0.82 0.71 0.71 0.71 0.73 0.72 0.67 0.71 0.85 0.70 0.82 1.03 1.13 1.23 1.30 1.38 1.43 1.52 1.62 1.69 1.75 1.71 1.72 1.82 1.80 1.76 1.66 1.53 1.46 1.39 1.39 1.43 1.53 1.57 1.61 1.65 1.72
0.92 1.00 0.85 0.79 0.81 0.81 0.81 0.70 0.67 0.57 0.48 0.44 0.42 0.45 0.50 0.51 0.53 0.67 0.83 0.96 1.15 1.27 1.35 1.47 1.60 1.68 1.71 1.79 1.77 1.81 1.74 1.83 1.95 1.82 1.74 1.65 1.58 1.60 1.65 1.66 1.54 1.63 1.74 1.82
0.75 0.69 0.76 0.82 0.68 0.76 0.71 0.65 0.47 0.34 0.32 0.29 0.40 0.29 0.38 0.47 0.50 0.63 0.72 0.85 1.02 1.19 1.27 1.39 1.51 1.63 1.71 1.80 1.82 1.87 1.93 1.89 1.84 2.01 1.95 1.82 1.80 1.84 1.84 1.88 1.82 1.74 1.71 1.75
0.56 0.58 0.68 0.77 0.67 0.59 0.61 0.59 0.44 0.32 0.29 0.28 0.46 0.33 0.33 0.47 0.55 0.65 0.76 0.89 1.08 1.16 1.22 1.33 1.40 1.56 1.69 1.75 1.82 1.89 1.91 1.82 1.87 1.92 1.95 1.94 1.90 1.93 1.93 1.99 2.02 1.99 1.93 1.94
0.52 0.47 0.68 0.69 0.73 0.67 0.67 0.48 0.58 0.36 0.36 0.31 0.29 0.32 0.38 0.50 0.49 0.55 0.62 0.78 0.92 1.12 1.24 1.30 1.39 1.50 1.64 1.68 1.76 1.83 1.88 1.81 1.81 1.86 1.90 1.99 1.99 1.98 2.00 1.99 1.96 1.84 1.89 1.91
0.57 0.37 0.54 0.57 0.64 0.63 0.57 0.61 0.43 0.42 0.26 0.20 0.22 0.26 0.27 0.34 0.33 0.43 0.50 0.60 0.82 1.02 1.19 1.34 1.37 1.47 1.57 1.68 1.79 1.77 1.77 1.92 1.86 1.91 1.87 1.92 2.00 1.99 1.94 1.83 1.66 1.71 1.81 1.83
0.50 0.42 0.43 0.49 0.49 0.40 0.50 0.43 0.42 0.31 0.26 0.22 0.19 0.22 0.30 0.30 0.39 0.42 0.52 0.63 0.75 0.90 1.15 1.33 1.38 1.46 1.55 1.62 1.70 1.77 1.82 1.85 1.93 1.86 1.88 1.91 1.74 1.78 1.77 1.90 1.76 1.69 1.66 1.65
0.47 0.38 0.34 0.34 0.34 0.32 0.32 0.28 0.29 0.24 0.24 0.27 0.25 0.24 0.42 0.44 0.47 0.47 0.47 0.66 0.82 0.95 1.09 1.34 1.44 1.47 1.47 1.52 1.54 1.56 1.68 1.78 1.78 1.82 1.87 1.85 1.88 1.88 1.80 1.89 1.73 1.66 1.62 1.64
0.37 0.31 0.23 0.23 0.29 0.32 0.29 0.33 0.31 0.28 0.28 0.26 0.25 0.28 0.44 0.43 0.46 0.50 0.55 0.73 0.88 0.94 1.04 1.28 1.43 1.57 1.44 1.48 1.54 1.57 1.67 1.70 1.76 1.84 1.79 1.73 1.71 1.78 1.75 1.80 1.67 1.65 1.76 1.69
0.31 0.26 0.23 0.19 0.23 0.30 0.25 0.29 0.34 0.32 0.26 0.27 0.28 0.30 0.34 0.42 0.48 0.56 0.69 0.75 0.94 0.96 1.06 1.18 1.31 1.48 1.46 1.47 1.47 1.51 1.55 1.66 1.72 1.71 1.76 1.67 1.69 1.76 1.74 1.70 1.72 1.73 1.66 1.49
0.34 0.27 0.32 0.30 0.30 0.29 0.27 0.28 0.30 0.31 0.34 0.30 0.31 0.31 0.38 0.47 0.61 0.68 0.77 0.84 0.96 0.96 1.07 1.18 1.25 1.36 1.42 1.43 1.47 1.47 1.51 1.60 1.63 1.59 1.57 1.60 1.69 1.69 1.68 1.68 1.64 1.55 1.45 1.40
0.45 0.33 0.36 0.31 0.33 0.34 0.31 0.34 0.32 0.31 0.31 0.31 0.35 0.37 0.52 0.71 0.72 0.75 0.86 0.93 1.01 1.08 1.15 1.21 1.30 1.34 1.38 1.39 1.41 1.45 1.47 1.50 1.56 1.52 1.52 1.59 1.63 1.62 1.55 1.51 1.43 1.39 1.32 1.27
0.42 0.37 0.33 0.26 0.32 0.31 0.24 0.26 0.29 0.32 0.35 0.36 0.34 0.42 0.56 0.64 0.72 0.83 0.90 0.97 1.03 1.17 1.22 1.25 1.31 1.33 1.37 1.42 1.49 1.45 1.46 1.50 1.50 1.46 1.45 1.46 1.46 1.38 1.42 1.41 1.34 1.24 1.17 1.13
0.35 0.37 0.34 0.27 0.29 0.20 0.34 0.43 0.39 0.35 0.36 0.40 0.46 0.54 0.66 0.77 0.82 0.93 1.04 1.04 1.02 1.10 1.19 1.28 1.36 1.42 1.49 1.52 1.52 1.54 1.53 1.47 1.45 1.46 1.43 1.37 1.34 1.24 1.27 1.26 1.16 1.11 1.02 0.89
0.40 0.35 0.30 0.24 0.26 0.31 0.36 0.42 0.44 0.37 0.32 0.45 0.54 0.62 0.69 0.82 0.85 0.81 1.10 1.07 1.08 1.20 1.27 1.31 1.35 1.45 1.50 1.49 1.52 1.50 1.47 1.39 1.34 1.31 1.32 1.32 1.27 1.13 1.11 1.10 1.03 0.91 0.81 0.77
0.43 0.42 0.36 0.34 0.29 0.23 0.37 0.51 0.53 0.49 0.33 0.68 0.69 0.67 0.68 0.73 0.59 0.79 1.06 1.09 1.09 1.21 1.33 1.33 1.35 1.37 1.40 1.42 1.43 1.38 1.29 1.29 1.30 1.30 1.33 1.25 1.19 1.09 0.99 0.90 0.78 0.76 0.77 0.75
0.38 0.39 0.34 0.34 0.33 0.40 0.49 0.55 0.59 0.34 0.49 0.72 0.70 0.71 0.70 0.64 0.79 0.94 1.05 1.09 1.18 1.26 1.37 1.46 1.46 1.37 1.36 1.39 1.38 1.28 1.23 1.21 1.22 1.15 1.11 1.00 0.93 0.80 0.71 0.66 0.68 0.73 0.72 0.73
0.38 0.37 0.34 0.39 0.32 0.28 0.59 0.57 0.43 0.59 0.67 0.64 0.70 0.75 0.75 0.80 0.90 1.00 1.07 1.06 1.16 1.28 1.39 1.43 1.37 1.33 1.36 1.39 1.33 1.24 1.15 1.12 1.01 0.92 0.83 0.77 0.73 0.71 0.73 0.72 0.72 0.73 0.76 0.77
0.39 0.43 0.37 0.42 0.40 0.66 0.66 0.62 0.65 0.69 0.67 0.69 0.74 0.74 0.77 0.82 0.89 0.96 0.98 1.03 1.17 1.29 1.38 1.40 1.34 1.34 1.38 1.36 1.30 1.19 1.13 1.05 0.90 0.72 0.68 0.68 0.73 0.74 0.76 0.74 0.77 0.79 0.82 0.79
0.54 0.61 0.44 0.43 0.51 0.54 0.64 0.65 0.65 0.66 0.70 0.75 0.78 0.78 0.83 0.85 0.97 0.99 1.03 1.12 1.15 1.24 1.28 1.34 1.27 1.28 1.28 1.33 1.23 1.17 1.10 1.05 0.81 0.69 0.68 0.72 0.74 0.76 0.78 0.81 0.84 0.80 0.74 0.68
0.54 0.61 0.52 0.49 0.56 0.61 0.59 0.60 0.67 0.72 0.80 0.82 0.84 0.85 0.85 0.90 1.01 1.08 1.09 1.19 1.19 1.20 1.24 1.25 1.22 1.24 1.33 1.35 1.17 1.11 1.13 0.97 0.78 0.76 0.79 0.83 0.85 0.81 0.82 0.80 0.78 0.77 0.79 0.79
0.44 0.44 0.40 0.37 0.53 0.51 0.49 0.61 0.72 0.77 0.78 0.86 0.85 0.82 0.91 0.93 0.97 1.03 1.07 1.19 1.19 1.13 1.16 1.13 1.22 1.23 1.31 1.32 1.18 1.07 1.12 0.95 0.86 0.79 0.82 0.83 0.83 0.86 0.83 0.81 0.79 0.77 0.79 0.89

GFSCGP_prec_pwat_339.txt.gz
Precipitable_Water
1.26 1.13 1.05 0.99 1.01 1.03 0.96 0.91 1.00 1.03 1.15 1.01 0.99 0.99 1.09 1.22 1.29 1.31 1.35 1.44 1.42 1.35 1.47 1.48 1.44 1.49 1.50 1.47 1.32 0.98 0.98 1.06 1.05 1.01 0.98 1.12 1.27 1.37 1.45 1.53 1.58 1.71 1.73 1.85
1.11 1.15 1.13 1.05 1.05 1.01 0.98 1.04 0.92 1.02 1.01 0.96 0.98 0.96 1.08 1.17 1.25 1.21 1.30 1.37 1.41 1.47 1.49 1.53 1.59 1.65 1.66 1.55 1.51 1.47 1.08 1.00 1.05 1.06 1.07 1.17 1.27 1.36 1.43 1.53 1.61 1.68 1.74 1.83
1.21 1.00 1.06 1.00 0.96 1.00 0.92 0.81 0.80 0.81 0.86 1.02 1.00 0.97 0.93 0.99 1.02 1.13 1.22 1.33 1.41 1.46 1.42 1.48 1.48 1.61 1.70 1.77 1.72 1.59 1.55 1.36 1.14 1.05 1.12 1.22 1.33 1.34 1.34 1.41 1.62 1.71 1.80 1.90
1.08 1.02 0.95 0.87 0.80 0.80 0.94 0.75 0.76 0.75 0.73 0.72 0.80 0.72 1.01 0.93 0.97 1.00 1.07 1.15 1.29 1.41 1.49 1.50 1.54 1.54 1.66 1.72 1.83 1.82 1.74 1.65 1.60 1.38 1.28 1.20 1.11 1.14 1.24 1.34 1.52 1.80 1.95 1.77
0.90 0.93 0.90 0.82 0.79 0.64 0.70 0.60 0.58 0.54 0.53 0.67 0.69 0.45 0.78 0.84 0.61 0.76 0.94 1.04 1.14 1.27 1.43 1.47 1.54 1.65 1.78 1.76 1.80 1.90 1.97 1.82 1.78 1.74 1.54 1.45 1.36 1.34 1.37 1.66 1.69 1.72 1.80 1.72
0.95 0.90 0.77 0.82 0.67 0.63 0.55 0.73 0.77 0.70 0.53 0.58 0.43 0.23 0.63 0.56 0.54 0.59 0.72 0.85 1.00 1.14 1.29 1.41 1.52 1.60 1.61 1.77 1.82 1.90 1.98 2.08 2.02 1.96 1.84 1.73 1.64 1.52 1.64 1.54 1.56 1.54 1.60 1.59
0.76 0.72 0.70 0.57 0.71 0.98 0.69 0.60 0.57 0.48 0.46 0.36 0.43 0.30 0.39 0.53 0.64 0.59 0.60 0.75 0.90 1.12 1.27 1.35 1.39 1.50 1.60 1.61 1.72 1.86 1.96 2.00 2.12 2.13 2.10 1.96 1.88 1.87 1.85 1.87 1.79 1.81 1.83 1.82
0.67 0.68 0.72 0.82 0.56 0.60 0.49 0.51 0.45 0.39 0.38 0.35 0.41 0.41 0.40 0.45 0.65 0.60 0.55 0.72 0.87 0.95 1.19 1.31 1.42 1.47 1.59 1.68 1.72 1.77 1.86 1.84 1.99 2.06 2.18 2.14 2.07 1.96 1.99 2.04 2.02 1.96 2.02 2.03
0.56 0.55 0.76 0.65 0.62 0.62 0.69 0.51 0.64 0.37 0.39 0.31 0.34 0.34 0.36 0.46 0.47 0.46 0.47 0.54 0.72 0.97 0.99 1.20 1.44 1.58 1.61 1.66 1.70 1.76 1.80 1.83 1.93 1.85 2.13 2.16 1.99 1.90 2.00 1.99 1.94 1.74 1.74 1.83
0.61 0.46 0.53 0.67 0.52 0.47 0.51 0.54 0.37 0.46 0.31 0.25 0.26 0.29 0.30 0.35 0.35 0.40 0.44 0.47 0.65 0.90 1.07 1.10 1.25 1.46 1.59 1.66 1.73 1.78 1.81 1.82 1.89 1.89 1.99 2.04 2.03 2.00 1.95 1.97 1.80 1.68 1.66 1.73
0.39 0.46 0.48 0.51 0.51 0.49 0.48 0.52 0.47 0.41 0.30 0.24 0.25 0.29 0.34 0.37 0.42 0.45 0.48 0.51 0.72 0.79 0.99 1.05 1.18 1.41 1.58 1.69 1.76 1.84 1.82 1.86 1.69 1.75 1.73 1.83 1.93 1.83 1.61 1.56 1.55 1.67 1.70 1.70
0.41 0.42 0.34 0.39 0.45 0.40 0.32 0.26 0.28 0.24 0.25 0.27 0.25 0.25 0.43 0.47 0.45 0.46 0.50 0.64 0.81 0.92 0.99 1.04 1.12 1.30 1.51 1.59 1.65 1.74 1.82 1.83 1.81 1.83 1.84 1.81 1.85 1.74 1.54 1.60 1.64 1.77 1.80 1.77
0.37 0.32 0.26 0.29 0.32 0.37 0.32 0.32 0.32 0.32 0.29 0.24 0.26 0.29 0.44 0.46 0.45 0.50 0.58 0.75 0.87 1.02 1.00 1.08 1.12 1.26 1.43 1.58 1.62 1.70 1.72 1.85 1.91 1.90 1.85 1.82 1.78 1.76 1.70 1.69 1.74 1.82 1.79 1.69
0.30 0.24 0.23 0.21 0.25 0.31 0.28 0.31 0.31 0.29 0.29 0.30 0.31 0.34 0.40 0.42 0.45 0.56 0.69 0.80 0.90 1.04 1.03 1.10 1.20 1.28 1.40 1.47 1.57 1.56 1.61 1.77 1.86 1.83 1.80 1.74 1.72 1.75 1.74 1.76 1.77 1.79 1.75 1.62
0.33 0.25 0.29 0.31 0.34 0.34 0.30 0.29 0.29 0.28 0.30 0.27 0.30 0.32 0.36 0.44 0.62 0.68 0.78 0.93 0.98 1.00 1.04 1.14 1.23 1.28 1.34 1.38 1.44 1.54 1.66 1.69 1.74 1.72 1.73 1.72 1.72 1.69 1.70 1.74 1.71 1.71 1.63 1.62
0.47 0.35 0.40 0.35 0.38 0.38 0.33 0.33 0.34 0.34 0.34 0.32 0.32 0.33 0.46 0.57 0.66 0.75 0.85 0.95 0.93 1.05 1.05 1.17 1.28 1.33 1.33 1.40 1.43 1.48 1.55 1.54 1.63 1.66 1.62 1.63 1.60 1.60 1.66 1.68 1.70 1.62 1.60 1.51
0.48 0.43 0.40 0.32 0.38 0.35 0.28 0.32 0.33 0.32 0.33 0.34 0.31 0.37 0.48 0.58 0.75 0.80 0.84 0.97 0.96 1.02 1.10 1.15 1.20 1.31 1.38 1.43 1.46 1.44 1.55 1.62 1.59 1.57 1.56 1.58 1.55 1.53 1.54 1.55 1.45 1.40 1.40 1.42
0.40 0.39 0.37 0.31 0.36 0.23 0.34 0.44 0.42 0.38 0.40 0.41 0.40 0.48 0.63 0.69 0.83 0.84 0.91 1.06 1.08 1.07 1.14 1.16 1.20 1.29 1.41 1.53 1.53 1.54 1.53 1.54 1.53 1.51 1.55 1.55 1.53 1.48 1.46 1.44 1.32 1.36 1.41 1.25
0.44 0.41 0.32 0.28 0.31 0.33 0.34 0.45 0.49 0.47 0.42 0.39 0.44 0.60 0.66 0.75 0.78 0.84 1.10 1.07 1.02 1.06 1.23 1.32 1.34 1.36 1.42 1.44 1.48 1.50 1.48 1.48 1.50 1.44 1.46 1.50 1.49 1.40 1.40 1.32 1.23 1.23 1.14 1.07
0.46 0.44 0.34 0.31 0.28 0.26 0.44 0.53 0.59 0.52 0.31 0.67 0.69 0.71 0.73 0.78 0.56 0.69 1.06 0.96 0.93 1.07 1.24 1.41 1.44 1.42 1.48 1.43 1.43 1.37 1.39 1.37 1.30 1.33 1.36 1.44 1.44 1.41 1.28 1.23 1.20 1.13 1.00 0.89
0.47 0.44 0.36 0.35 0.32 0.37 0.51 0.61 0.64 0.39 0.47 0.77 0.75 0.74 0.70 0.67 0.71 0.85 0.94 0.90 0.98 1.09 1.25 1.44 1.44 1.41 1.44 1.47 1.45 1.36 1.32 1.24 1.32 1.35 1.41 1.41 1.30 1.27 1.24 1.14 1.04 0.90 0.86 0.87
0.45 0.45 0.44 0.45 0.40 0.34 0.65 0.62 0.50 0.59 0.68 0.68 0.66 0.65 0.69 0.75 0.77 0.82 0.99 1.01 1.02 1.13 1.33 1.42 1.46 1.51 1.50 1.48 1.42 1.35 1.25 1.33 1.33 1.30 1.15 1.08 1.05 0.97 0.89 0.80 0.77 0.79 0.78 0.78
0.46 0.51 0.47 0.49 0.49 0.72 0.76 0.69 0.69 0.71 0.70 0.67 0.68 0.73 0.75 0.72 0.78 0.90 0.94 1.00 1.03 1.19 1.40 1.46 1.41 1.46 1.45 1.52 1.40 1.33 1.27 1.27 1.19 1.06 0.88 0.77 0.75 0.74 0.78 0.75 0.76 0.73 0.73 0.72
0.62 0.69 0.58 0.57 0.59 0.57 0.59 0.69 0.75 0.77 0.71 0.69 0.79 0.80 0.82 0.79 0.84 0.88 0.99 1.08 1.12 1.23 1.39 1.39 1.37 1.35 1.35 1.45 1.37 1.32 1.35 1.25 1.13 0.96 0.78 0.73 0.70 0.71 0.77 0.74 0.74 0.74 0.77 0.77
0.57 0.66 0.66 0.67 0.71 0.67 0.65 0.69 0.74 0.69 0.79 0.80 0.84 0.87 0.88 0.86 0.87 0.93 1.04 1.11 1.23 1.30 1.43 1.33 1.25 1.33 1.36 1.42 1.36 1.36 1.31 1.20 1.06 0.86 0.76 0.76 0.77 0.74 0.79 0.78 0.83 0.84 0.86 0.86
0.53 0.49 0.46 0.46 0.60 0.58 0.57 0.67 0.66 0.69 0.76 0.83 0.83 0.89 0.93 0.91 0.93 0.99 0.99 1.07 1.14 1.15 1.30 1.29 1.25 1.22 1.41 1.44 1.42 1.28 1.24 1.15 1.04 0.88 0.82 0.83 0.85 0.92 0.81 0.86 0.81 0.79 0.81 0.83

GFSCGP_prec_pwat_342.txt.gz
Precipitable_Water
1.50 1.15 1.03 1.07 1.05 1.09 1.11 1.04 1.02 1.09 1.15 1.06 1.01 1.04 1.18 1.28 1.34 1.64 1.29 1.39 1.36 1.36 1.42 1.53 1.61 1.59 1.44 1.41 1.27 1.02 0.95 1.03 1.08 1.07 1.02 1.08 1.17 1.28 1.36 1.45 1.45 1.69 1.88 1.68
1.16 0.98 1.08 1.16 1.04 1.13 1.01 0.87 0.96 1.03 1.04 1.01 1.00 1.02 1.10 1.33 1.28 1.40 1.26 1.37 1.53 1.42 1.37 1.43 1.51 1.61 1.64 1.69 1.63 1.39 1.14 1.11 1.06 1.04 1.02 1.11 1.20 1.37 1.36 1.47 1.57 1.59 1.70 1.66
0.96 1.06 1.13 0.97 1.01 0.94 0.92 0.78 0.73 0.76 0.84 1.02 0.98 0.90 0.98 1.00 1.09 1.11 1.12 1.31 1.32 1.52 1.39 1.39 1.40 1.49 1.59 1.62 1.69 1.61 1.46 1.23 1.10 1.08 1.08 1.11 1.34 1.38 1.38 1.44 1.57 1.54 1.59 1.56
1.09 1.06 0.93 0.87 0.85 0.68 0.77 0.67 0.58 0.56 0.63 0.64 0.81 0.64 0.81 0.91 1.06 0.95 0.97 0.97 1.13 1.34 1.39 1.84 1.47 1.43 1.48 1.62 1.79 1.87 1.72 1.60 1.41 1.29 1.15 1.06 1.09 1.11 1.30 1.45 1.60 1.83 2.18 1.80
0.86 0.86 0.84 0.89 0.75 0.52 0.60 0.56 0.63 0.70 0.57 0.67 0.51 0.59 0.70 0.88 0.72 0.76 0.86 0.91 0.94 1.02 1.29 1.44 1.35 1.40 1.51 1.55 1.82 2.01 1.97 1.80 1.79 1.64 1.58 1.41 1.31 1.22 1.35 1.49 1.61 1.69 1.74 1.75
0.94 0.99 0.70 0.75 0.57 0.64 0.80 0.69 0.75 0.72 0.80 0.63 0.46 0.38 0.57 0.59 0.56 0.63 0.65 0.73 0.81 0.92 1.03 1.30 1.47 1.51 1.73 1.77 1.69 1.77 1.86 1.87 1.90 1.84 1.74 1.83 1.65 1.66 1.55 1.49 1.46 1.59 1.79 1.84
0.87 0.87 0.77 0.65 0.63 0.77 0.69 0.58 0.53 0.54 0.51 0.52 0.51 0.31 0.46 0.58 0.66 0.62 0.58 0.67 0.78 0.77 0.98 1.18 1.35 1.36 1.40 1.56 1.60 1.66 1.86 1.77 1.93 1.92 1.97 1.96 2.08 2.07 2.02 1.91 1.84 1.78 1.90 1.95
0.75 0.71 0.81 0.79 0.52 0.49 0.51 0.58 0.51 0.37 0.38 0.38 0.43 0.44 0.42 0.49 0.61 0.53 0.51 0.54 0.80 0.91 0.91 1.11 1.28 1.43 1.85 1.62 1.79 1.70 1.82 1.81 1.86 1.90 1.95 2.06 2.09 1.99 2.12 2.10 2.10 2.03 2.02 2.05
0.77 0.78 0.78 0.71 0.55 0.58 0.52 0.44 0.50 0.38 0.48 0.37 0.36 0.39 0.46 0.48 0.50 0.50 0.49 0.50 0.48 0.78 0.98 0.96 1.11 1.50 1.53 1.70 1.81 1.73 1.73 1.81 1.83 1.81 1.87 1.94 1.95 1.94 1.92 2.10 2.03 1.95 1.85 1.81
0.57 0.48 0.55 0.66 0.58 0.55 0.42 0.54 0.42 0.39 0.33 0.28 0.29 0.32 0.38 0.43 0.44 0.47 0.48 0.49 0.63 0.73 1.01 1.07 0.99 1.02 1.18 1.55 1.76 1.77 1.81 1.80 1.85 1.84 1.87 1.91 1.88 1.71 1.70 1.73 1.61 1.62 1.68 1.73
0.31 0.33 0.39 0.54 0.49 0.51 0.53 0.38 0.32 0.40 0.40 0.31 0.26 0.32 0.42 0.42 0.45 0.44 0.46 0.53 0.66 0.77 0.91 1.01 0.96 1.12 1.22 1.35 1.56 1.79 1.81 1.82 1.90 1.90 1.90 1.87 1.72 1.67 1.71 1.63 1.58 1.50 1.56 1.56
0.30 0.29 0.32 0.38 0.44 0.45 0.41 0.32 0.29 0.22 0.24 0.27 0.27 0.26 0.43 0.48 0.49 0.50 0.51 0.67 0.81 0.92 1.07 1.06 1.02 1.08 1.20 1.19 1.41 1.63 1.77 1.84 1.99 1.97 1.88 1.82 1.78 1.78 1.73 1.58 1.46 1.50 1.59 1.76
0.32 0.31 0.26 0.27 0.33 0.42 0.37 0.38 0.35 0.32 0.31 0.27 0.26 0.29 0.45 0.49 0.49 0.52 0.60 0.70 0.87 1.05 1.11 0.96 1.04 1.10 1.21 1.29 1.40 1.51 1.70 1.83 2.00 1.89 1.89 1.88 1.84 1.78 1.71 1.63 1.50 1.48 1.63 1.75
0.29 0.22 0.20 0.19 0.23 0.33 0.33 0.35 0.33 0.29 0.25 0.25 0.27 0.32 0.37 0.41 0.42 0.55 0.64 0.76 0.93 1.13 1.09 0.95 1.03 1.15 1.29 1.34 1.39 1.45 1.60 1.80 1.89 2.01 1.96 1.82 1.81 1.80 1.75 1.75 1.66 1.68 1.73 1.75
0.41 0.24 0.29 0.30 0.32 0.33 0.34 0.34 0.34 0.31 0.32 0.29 0.31 0.33 0.37 0.42 0.54 0.65 0.77 0.83 0.96 1.02 1.23 1.06 1.05 1.17 1.31 1.38 1.42 1.47 1.55 1.65 1.78 1.57 1.91 1.93 2.01 1.87 1.84 1.81 1.75 1.77 1.75 1.73
0.49 0.38 0.42 0.35 0.41 0.44 0.41 0.39 0.38 0.36 0.35 0.35 0.34 0.33 0.44 0.54 0.69 0.76 0.81 0.83 0.87 0.98 1.10 1.10 1.13 1.20 1.26 1.36 1.47 1.48 1.51 1.58 1.60 1.63 1.72 1.84 1.99 1.86 1.77 1.71 1.70 1.71 1.69 1.65
0.46 0.47 0.43 0.35 0.40 0.37 0.29 0.34 0.36 0.39 0.39 0.36 0.31 0.38 0.45 0.55 0.61 0.69 0.72 0.73 0.82 1.04 1.18 1.13 1.11 1.21 1.22 1.32 1.46 1.48 1.50 1.56 1.54 1.54 1.66 1.83 1.78 1.71 1.67 1.68 1.65 1.61 1.57 1.56
0.35 0.36 0.39 0.34 0.38 0.24 0.37 0.48 0.45 0.41 0.43 0.45 0.45 0.42 0.43 0.57 0.68 0.74 0.90 0.95 1.00 1.02 1.13 1.25 1.15 1.22 1.30 1.40 1.44 1.52 1.54 1.55 1.53 1.52 1.55 1.58 1.60 1.59 1.64 1.62 1.58 1.54 1.48 1.34
0.46 0.40 0.35 0.33 0.32 0.34 0.36 0.47 0.51 0.49 0.50 0.60 0.56 0.59 0.63 0.72 0.75 0.76 0.98 1.02 0.98 0.99 1.04 0.97 1.26 1.35 1.36 1.45 1.50 1.43 1.39 1.39 1.45 1.47 1.47 1.51 1.59 1.54 1.54 1.51 1.44 1.40 1.34 1.25
0.56 0.55 0.45 0.40 0.32 0.26 0.37 0.49 0.64 0.59 0.41 0.66 0.67 0.68 0.69 0.72 0.56 0.63 0.81 0.84 0.95 1.00 1.00 1.05 1.35 1.44 1.44 1.45 1.47 1.46 1.40 1.37 1.38 1.40 1.43 1.44 1.49 1.48 1.45 1.42 1.38 1.37 1.22 1.14
0.50 0.56 0.51 0.47 0.40 0.43 0.55 0.67 0.70 0.45 0.55 0.80 0.78 0.74 0.69 0.63 0.70 0.78 0.77 0.77 1.00 1.06 1.06 1.25 1.49 1.45 1.46 1.56 1.47 1.35 1.39 1.37 1.40 1.35 1.32 1.33 1.36 1.40 1.44 1.39 1.27 1.18 1.08 0.99
0.46 0.47 0.49 0.55 0.50 0.46 0.79 0.75 0.63 0.77 0.81 0.78 0.75 0.72 0.67 0.70 0.76 0.74 0.79 0.93 1.03 0.99 1.04 1.28 1.43 1.30 1.48 1.55 1.49 1.36 1.32 1.39 1.34 1.31 1.24 1.23 1.23 1.24 1.21 1.13 1.06 1.01 0.91 0.87
0.47 0.60 0.56 0.58 0.54 0.79 0.86 0.82 0.83 0.82 0.77 0.76 0.74 0.70 0.71 0.75 0.77 0.79 0.82 0.89 1.08 1.00 1.06 1.35 1.37 1.34 1.44 1.45 1.48 1.42 1.33 1.35 1.35 1.23 1.16 1.16 1.06 1.01 0.96 0.87 0.80 0.77 0.80 0.77
0.59 0.68 0.61 0.61 0.66 0.70 0.75 0.87 0.85 0.83 0.80 0.80 0.78 0.74 0.82 0.79 0.83 0.84 0.86 0.84 1.08 1.10 1.08 1.46 1.53 1.33 1.40 1.44 1.46 1.48 1.44 1.37 1.23 1.09 1.07 0.94 0.83 0.76 0.82 0.78 0.79 0.78 0.75 0.68
0.48 0.52 0.51 0.57 0.68 0.77 0.83 0.79 0.74 0.74 0.75 0.72 0.73 0.79 0.82 0.85 0.90 0.87 0.90 0.97 1.11 1.09 1.14 1.40 1.63 1.29 1.29 1.39 1.43 1.49 1.39 1.40 1.17 1.14 1.05 0.85 0.78 0.73 0.71 0.76 0.77 0.76 0.78 0.83
0.45 0.44 0.44 0.49 0.62 0.61 0.62 0.71 0.73 0.69 0.69 0.74 0.75 0.78 0.84 0.85 0.93 0.87 0.95 1.03 1.05 1.03 1.05 1.13 1.26 1.21 1.24 1.29 1.45 1.54 1.58 1.35 1.11 1.09 1.00 0.88 0.78 0.77 0.80 0.81 0.76 0.84 0.85 0.87

GFSCGP_prec_pwat_345.txt.gz
Precipitable_Water
1.36 1.07 1.01 1.14 1.15 1.12 1.05 0.98 0.93 1.00 1.14 1.17 1.13 1.13 1.24 1.40 1.37 1.33 1.40 1.46 1.56 1.58 1.49 1.53 1.47 1.41 1.41 1.40 1.35 1.32 1.22 1.15 1.12 1.09 0.95 0.93 1.00 1.13 1.23 1.36 1.38 1.43 1.47 1.51
1.10 0.93 1.09 1.18 1.24 1.20 0.98 0.86 0.87 1.01 1.12 1.13 1.05 1.04 1.16 1.31 1.20 1.27 1.09 1.25 1.37 1.39 1.38 1.52 1.58 1.50 1.44 1.43 1.48 1.44 1.30 1.26 1.26 1.18 1.05 1.01 1.05 1.16 1.29 1.40 1.45 1.47 1.60 1.70
0.98 0.96 1.06 1.16 1.09 0.96 0.88 0.73 0.68 0.65 0.91 0.96 0.73 0.82 0.95 1.09 1.17 1.20 1.24 1.40 1.41 1.31 1.22 1.33 1.46 1.52 1.44 1.53 1.51 1.51 1.50 1.31 1.27 1.24 1.23 1.16 1.23 1.28 1.31 1.34 1.41 1.53 1.67 1.64
1.01 0.97 0.96 1.02 0.85 0.63 0.60 0.70 0.53 0.58 0.65 0.62 0.68 0.51 0.64 0.83 0.82 0.99 1.11 1.21 1.34 1.38 1.37 1.40 1.38 1.39 1.41 1.52 1.60 1.59 1.67 1.55 1.44 1.37 1.27 1.11 1.10 1.16 1.35 1.45 1.52 1.72 1.82 1.78
0.80 0.84 0.81 0.80 0.73 0.50 0.56 0.74 0.66 0.75 0.80 0.77 0.72 0.51 0.52 0.68 0.61 0.73 0.82 0.86 0.92 1.14 1.27 1.32 1.36 1.41 1.54 1.49 1.53 1.57 1.73 1.71 1.61 1.43 1.32 1.24 1.26 1.33 1.54 1.62 1.62 1.64 1.79 1.78
0.80 0.83 0.83 0.70 0.52 0.68 0.79 0.74 0.78 0.84 0.84 0.58 0.69 0.58 0.53 0.59 0.55 0.57 0.61 0.61 0.56 0.60 0.86 1.23 1.38 1.46 1.61 1.70 1.90 1.88 1.85 1.63 1.62 1.53 1.58 1.51 1.45 1.59 1.66 1.81 1.81 1.80 1.83 2.01
0.76 0.78 0.91 0.84 0.53 0.67 0.60 0.61 0.54 0.64 0.53 0.44 0.56 0.57 0.55 0.61 0.60 0.55 0.52 0.57 0.70 0.81 0.84 0.97 1.18 1.36 1.76 1.75 1.79 1.82 1.83 1.74 1.70 1.79 1.64 1.66 1.82 1.76 1.78 1.75 1.82 1.82 1.82 1.92
0.67 0.63 0.78 0.79 0.60 0.46 0.61 0.56 0.40 0.39 0.38 0.43 0.49 0.43 0.49 0.63 0.60 0.58 0.57 0.60 0.76 0.87 0.83 0.94 1.14 1.44 1.59 1.79 1.68 1.50 1.40 1.84 1.78 1.85 1.84 1.94 1.88 1.81 1.72 1.87 1.85 1.89 1.93 2.03
0.73 0.68 0.82 0.81 0.64 0.49 0.42 0.32 0.46 0.40 0.42 0.41 0.37 0.46 0.58 0.58 0.52 0.50 0.49 0.52 0.68 0.81 0.85 0.89 0.93 1.07 1.20 1.36 1.49 1.35 1.47 1.59 1.85 2.00 2.01 1.90 1.80 1.69 1.81 1.78 1.79 1.69 1.85 1.84
0.64 0.45 0.52 0.63 0.63 0.57 0.50 0.46 0.36 0.34 0.31 0.28 0.32 0.37 0.40 0.45 0.46 0.48 0.49 0.53 0.59 0.75 0.86 0.95 0.99 1.09 1.25 1.27 1.25 1.34 1.43 1.66 1.92 2.15 2.07 1.95 1.86 1.81 1.86 1.69 1.57 1.42 1.54 1.63
0.36 0.33 0.34 0.43 0.50 0.46 0.51 0.46 0.34 0.26 0.29 0.27 0.27 0.31 0.45 0.43 0.46 0.45 0.55 0.61 0.68 0.79 0.89 0.96 1.00 1.08 1.19 1.44 1.52 1.57 1.60 1.67 1.81 1.90 2.00 2.01 1.96 1.96 1.92 1.71 1.52 1.42 1.43 1.54
0.31 0.26 0.23 0.31 0.40 0.48 0.46 0.39 0.35 0.27 0.21 0.28 0.28 0.28 0.47 0.49 0.49 0.54 0.59 0.66 0.80 0.89 0.95 0.98 0.97 1.01 1.04 1.10 1.28 1.52 1.67 1.64 1.81 1.90 2.00 2.06 2.08 2.01 1.87 1.70 1.63 1.51 1.41 1.48
0.31 0.24 0.22 0.23 0.31 0.36 0.35 0.39 0.39 0.35 0.31 0.26 0.25 0.26 0.49 0.51 0.54 0.62 0.70 0.84 0.91 0.94 0.97 1.00 1.04 1.04 0.98 1.04 1.15 1.29 1.44 1.53 1.77 1.94 1.96 2.04 2.05 2.05 1.87 1.77 1.74 1.59 1.41 1.47
0.37 0.27 0.18 0.15 0.19 0.31 0.31 0.36 0.38 0.36 0.29 0.28 0.28 0.28 0.36 0.50 0.56 0.66 0.76 0.84 0.89 0.93 0.97 1.02 1.06 0.99 0.96 1.04 1.16 1.31 1.43 1.51 1.64 1.79 1.89 1.90 1.87 1.69 1.83 1.92 1.88 1.72 1.55 1.49
0.43 0.32 0.33 0.30 0.31 0.33 0.37 0.40 0.43 0.40 0.38 0.31 0.31 0.34 0.49 0.55 0.59 0.64 0.71 0.73 0.79 0.93 1.00 1.06 1.01 1.00 1.00 1.02 1.12 1.20 1.36 1.50 1.57 1.70 1.75 1.69 1.79 1.73 1.73 1.85 1.94 1.78 1.67 1.66
0.50 0.40 0.44 0.39 0.45 0.46 0.39 0.39 0.38 0.37 0.37 0.37 0.39 0.42 0.56 0.61 0.63 0.63 0.63 0.66 0.67 0.79 0.95 1.00 1.03 1.04 0.97 1.07 1.10 1.22 1.32 1.43 1.51 1.57 1.64 1.63 1.66 1.68 1.75 1.55 1.87 1.87 1.80 1.79
0.42 0.38 0.35 0.30 0.38 0.37 0.28 0.32 0.38 0.42 0.44 0.42 0.37 0.43 0.52 0.53 0.57 0.61 0.69 0.72 0.74 0.80 0.97 1.07 1.13 1.12 1.07 1.12 1.20 1.23 1.32 1.41 1.45 1.47 1.52 1.58 1.66 1.66 1.66 1.76 1.85 1.74 1.72 1.71
0.36 0.35 0.34 0.27 0.30 0.22 0.34 0.44 0.45 0.46 0.47 0.48 0.49 0.53 0.57 0.60 0.68 0.74 0.79 0.76 0.77 0.81 0.82 0.93 1.06 1.18 1.14 1.29 1.30 1.34 1.33 1.30 1.37 1.42 1.48 1.56 1.60 1.62 1.67 1.69 1.65 1.64 1.63 1.58
0.54 0.48 0.40 0.34 0.34 0.38 0.41 0.43 0.46 0.49 0.51 0.63 0.62 0.65 0.70 0.74 0.75 0.75 0.80 0.79 0.80 0.86 0.89 0.96 1.12 1.20 1.22 1.34 1.41 1.36 1.27 1.28 1.27 1.28 1.34 1.42 1.47 1.46 1.50 1.52 1.56 1.56 1.52 1.44
0.56 0.58 0.51 0.45 0.38 0.33 0.47 0.52 0.60 0.62 0.44 0.67 0.68 0.68 0.70 0.71 0.55 0.62 0.79 0.79 0.76 0.80 0.93 1.03 1.10 1.13 1.23 1.40 1.49 1.37 1.31 1.28 1.25 1.29 1.34 1.39 1.40 1.35 1.41 1.50 1.49 1.46 1.39 1.33
0.47 0.52 0.47 0.48 0.46 0.50 0.63 0.71 0.74 0.49 0.57 0.83 0.83 0.81 0.77 0.69 0.71 0.76 0.77 0.74 0.76 0.90 0.99 1.10 1.06 1.13 1.38 1.40 1.38 1.40 1.36 1.28 1.34 1.38 1.36 1.29 1.29 1.27 1.34 1.35 1.38 1.35 1.24 1.15
0.43 0.42 0.43 0.49 0.48 0.46 0.82 0.80 0.67 0.79 0.87 0.85 0.83 0.82 0.77 0.77 0.77 0.74 0.73 0.77 0.78 0.88 0.97 1.10 1.09 1.27 1.57 1.46 1.35 1.39 1.32 1.40 1.39 1.30 1.26 1.23 1.22 1.18 1.23 1.26 1.25 1.15 1.05 0.99
0.39 0.51 0.50 0.54 0.55 0.76 0.81 0.80 0.84 0.84 0.81 0.84 0.84 0.85 0.82 0.75 0.74 0.73 0.77 0.78 0.78 0.80 0.98 1.15 1.24 1.26 1.80 1.51 1.44 1.32 1.41 1.39 1.30 1.24 1.18 1.14 1.16 1.10 1.05 0.98 0.97 0.90 0.90 0.81
0.46 0.52 0.45 0.50 0.60 0.67 0.80 0.91 0.93 0.92 0.88 0.87 0.87 0.86 0.83 0.77 0.76 0.74 0.77 0.83 0.83 0.90 1.02 1.16 1.16 1.12 1.38 1.39 1.45 1.42 1.45 1.45 1.37 1.22 1.14 1.14 1.10 0.96 0.96 0.87 0.80 0.76 0.72 0.70
0.39 0.41 0.37 0.41 0.54 0.61 0.67 0.73 0.78 0.80 0.81 0.78 0.78 0.77 0.76 0.78 0.78 0.83 0.87 0.90 0.96 0.94 1.02 1.06 1.03 1.07 1.08 1.29 1.38 1.41 1.44 1.40 1.32 1.26 1.13 1.11 0.99 0.80 0.74 0.74 0.68 0.63 0.69 0.66
0.38 0.35 0.35 0.36 0.50 0.55 0.57 0.63 0.69 0.70 0.73 0.77 0.76 0.75 0.77 0.76 0.76 0.84 0.88 0.95 0.97 0.95 0.94 0.98 1.01 1.06 1.17 1.26 1.27 1.29 1.43 1.44 1.37 1.17 1.02 1.03 0.92 0.79 0.70 0.80 0.81 0.87 0.84 0.81